| time (UTC) | temp F | wind direction | speed knots | gust knots | rain 1hr in | rain 24hr in | rain mn in | humidity % | barometer mb |
| 20260505003445 | 65 | 0 | 0.0 | 3.5 | 0.00 | 0.00 | 0.00 | 55 | 1012.1 |
| 20260505001342 | 66 | 0 | 0.9 | 5.2 | 0.00 | 0.00 | 0.00 | 55 | 1012.0 |
| 20260505000321 | 68 | 0 | 0.9 | 3.5 | 0.00 | 0.00 | 0.00 | 51 | 1012.0 |
| 20260504235257 | 69 | 0 | 0.9 | 5.2 | 0.00 | 0.00 | 0.00 | 52 | 1012.0 |
| 20260504234251 | 67 | 0 | 0.0 | 3.5 | 0.00 | 0.00 | 0.00 | 54 | 1012.1 |
| 20260504233226 | 67 | 275 | 0.9 | 7.8 | 0.00 | 0.00 | 0.00 | 53 | 1012.1 |
| 20260504232226 | 68 | 246 | 0.9 | 5.2 | 0.00 | 0.00 | 0.00 | 54 | 1012.1 |
| 20260504230059 | 71 | 291 | 1.7 | 7.8 | 0.00 | 0.00 | 0.00 | 50 | 1012.1 |
| 20260504225049 | 72 | 212 | 0.9 | 7.0 | 0.00 | 0.00 | 0.00 | 48 | 1012.2 |
| 20260504224034 | 72 | 238 | 0.9 | 7.0 | 0.00 | 0.00 | 0.00 | 46 | 1012.2 |
| 20260504223046 | 72 | 253 | 0.9 | 5.2 | 0.00 | 0.00 | 0.00 | 44 | 1012.2 |
| 20260504222101 | 72 | 139 | 0.9 | 7.0 | 0.00 | 0.00 | 0.00 | 49 | 1012.2 |
| 20260504215914 | 72 | 262 | 0.9 | 9.6 | 0.00 | 0.00 | 0.00 | 45 | 1012.3 |
| 20260504214936 | 73 | 175 | 0.9 | 7.0 | 0.00 | 0.00 | 0.00 | 46 | 1012.2 |
| 20260504213902 | 73 | 188 | 0.9 | 5.2 | 0.00 | 0.00 | 0.00 | 44 | 1012.2 |
| 20260504212831 | 73 | 261 | 0.9 | 5.2 | 0.00 | 0.00 | 0.00 | 47 | 1012.3 |
| 20260504211804 | 72 | 106 | 0.9 | 9.6 | 0.00 | 0.00 | 0.00 | 43 | 1012.3 |
| 20260504205642 | 72 | 196 | 0.9 | 13.0 | 0.00 | 0.00 | 0.00 | 49 | 1012.5 |
| 20260504204641 | 72 | 162 | 1.7 | 13.0 | 0.00 | 0.00 | 0.00 | 49 | 1012.5 |
| 20260504203619 | 73 | 259 | 1.7 | 7.0 | 0.00 | 0.00 | 0.00 | 46 | 1012.5 |
| 20260504202625 | 73 | 171 | 1.7 | 7.8 | 0.00 | 0.00 | 0.00 | 50 | 1012.8 |
| 20260504201619 | 73 | 222 | 0.9 | 7.0 | 0.00 | 0.00 | 0.00 | 49 | 1012.8 |
| 20260504200555 | 72 | 188 | 0.9 | 7.0 | 0.00 | 0.00 | 0.00 | 51 | 1012.9 |
| 20260504195535 | 72 | 211 | 0.9 | 7.0 | 0.00 | 0.00 | 0.00 | 50 | 1013.2 |
| 20260504194550 | 72 | 317 | 1.7 | 14.8 | 0.00 | 0.00 | 0.00 | 49 | 1013.2 |
| 20260504193532 | 72 | 163 | 1.7 | 14.8 | 0.00 | 0.00 | 0.00 | 48 | 1013.4 |
| 20260504192521 | 71 | 277 | 0.9 | 7.0 | 0.00 | 0.00 | 0.00 | 49 | 1013.5 |
| 20260504190351 | 72 | 198 | 0.9 | 9.6 | 0.00 | 0.00 | 0.00 | 53 | 1013.9 |
| 20260504185359 | 70 | 244 | 1.7 | 9.6 | 0.00 | 0.00 | 0.00 | 50 | 1014.1 |
| 20260504183227 | 70 | 219 | 1.7 | 13.0 | 0.00 | 0.00 | 0.00 | 52 | 1014.1 |
| 20260504182240 | 71 | 255 | 3.5 | 13.0 | 0.00 | 0.00 | 0.00 | 50 | 1014.3 |
| 20260504181247 | 70 | 262 | 1.7 | 9.6 | 0.00 | 0.00 | 0.00 | 51 | 1014.5 |
| 20260504180234 | 70 | 344 | 1.7 | 13.0 | 0.00 | 0.00 | 0.00 | 51 | 1014.5 |
| 20260504175203 | 71 | 215 | 1.7 | 13.0 | 0.00 | 0.00 | 0.00 | 52 | 1014.7 |
| 20260504174214 | 70 | 172 | 1.7 | 13.0 | 0.00 | 0.00 | 0.00 | 52 | 1014.8 |
| 20260504173213 | 69 | 165 | 1.7 | 11.3 | 0.00 | 0.00 | 0.00 | 51 | 1014.8 |
| 20260504172233 | 69 | 265 | 1.7 | 9.6 | 0.00 | 0.00 | 0.00 | 50 | 1014.8 |
| 20260504171224 | 69 | 215 | 0.9 | 5.2 | 0.00 | 0.00 | 0.00 | 52 | 1015.2 |
| 20260504170200 | 68 | 135 | 1.7 | 9.6 | 0.00 | 0.00 | 0.00 | 54 | 1015.2 |
| 20260504140450 | 59 | 138 | 1.7 | 7.8 | 0.00 | 0.00 | 0.00 | 58 | 1016.4 |
| 20260504130306 | 56 | 0 | 1.7 | 13.0 | 0.00 | 0.00 | 0.00 | 56 | 1016.4 |
| 20260504081944 | 52 | 0 | 0.0 | 0.0 | 0.00 | 0.00 | 0.00 | 59 | 1015.7 |
| 20260504081004 | 52 | 0 | 0.0 | 0.0 | 0.00 | 0.00 | 0.00 | 59 | 1015.7 |
| 20260504050507 | 52 | 0 | 0.9 | 7.0 | 0.00 | 0.00 | 0.00 | 59 | 1016.8 |
| 20260504045454 | 52 | 0 | 0.9 | 5.2 | 0.00 | 0.00 | 0.00 | 59 | 1016.8 |
| 20260504044433 | 52 | 0 | 0.9 | 5.2 | 0.00 | 0.00 | 0.00 | 60 | 1016.8 |
| 20260504043419 | 52 | 0 | 0.9 | 3.5 | 0.00 | 0.00 | 0.00 | 60 | 1016.9 |
| 20260504042444 | 52 | 0 | 0.9 | 5.2 | 0.00 | 0.00 | 0.00 | 59 | 1017.1 |
| 20260504040310 | 53 | 0 | 0.0 | 0.9 | 0.00 | 0.00 | 0.00 | 57 | 1017.2 |
| 20260504035252 | 54 | 0 | 0.0 | 0.0 | 0.00 | 0.00 | 0.00 | 56 | 1017.0 |
| 20260504034233 | 53 | 0 | 1.7 | 7.0 | 0.00 | 0.00 | 0.00 | 59 | 1017.2 |
| 20260504033254 | 53 | 0 | 0.9 | 7.0 | 0.00 | 0.00 | 0.00 | 58 | 1017.2 |
| 20260504032317 | 53 | 0 | 0.9 | 3.5 | 0.00 | 0.00 | 0.00 | 57 | 1017.4 |
| 20260504031257 | 54 | 0 | 0.9 | 5.2 | 0.00 | 0.00 | 0.00 | 56 | 1017.4 |
| 20260504030322 | 54 | 184 | 0.9 | 5.2 | 0.00 | 0.00 | 0.00 | 55 | 1017.4 |
| 20260504025307 | 54 | 162 | 0.9 | 0.0 | 0.00 | 0.00 | 0.00 | 57 | 1016.9 |
| 20260504024244 | 55 | 173 | 1.7 | 11.3 | 0.00 | 0.00 | 0.00 | 57 | 1017.0 |
| 20260504023258 | 54 | 263 | 1.7 | 5.2 | 0.00 | 0.00 | 0.00 | 60 | 1017.0 |
| 20260504022237 | 54 | 217 | 0.9 | 3.5 | 0.00 | 0.00 | 0.00 | 59 | 1017.0 |
| 20260504021225 | 54 | 225 | 0.0 | 3.5 | 0.00 | 0.00 | 0.00 | 59 | 1017.1 |
| 20260504015104 | 55 | 264 | 0.0 | 3.5 | 0.00 | 0.00 | 0.00 | 56 | 1017.0 |
| 20260504012940 | 55 | 221 | 0.0 | 0.0 | 0.00 | 0.00 | 0.00 | 55 | 1016.9 |
| 20260504010738 | 55 | 226 | 0.0 | 0.0 | 0.00 | 0.00 | 0.00 | 55 | 1016.8 |
| 20260504005735 | 56 | 212 | 0.0 | 0.9 | 0.00 | 0.00 | 0.00 | 55 | 1016.5 |
| 20260504004710 | 56 | 225 | 0.9 | 2.6 | 0.00 | 0.00 | 0.00 | 57 | 1016.5 |